Location: Brede
(50.9167°N, 0.6000°E)
Time: 03:33:05
(UTC+00:00)

Cosmos 1975 - Pass Details

Date: 08 August 2020
Orbit: 541 x 562 km, 82.5° (Epoch: 27 September)

Event Time Altitude Azimuth Distance (km) Brightness Sun altitude
Exits shadow 00:42:12 57° 276° (W) 651 3.0 -22.5°
Maximum altitude 00:42:19 58° 283° (WNW) 649 3.1 -22.5°
Drops below altitude 10° 00:46:18 10° 3° (N) 1,842 6.6 -22.4°
Sets 00:48:32 0° 8° (N) 2,745 7.9 -22.3°
